Regional Weather Roundup
Issued by NWS Midland/Odessa, TX

Current Version | Previous Version | Text Only | Print | Product List | Glossary On
Versions: 1 2 3 4 5 6 7 8 9 10 11 12 13 14 15 16 17 18 19 20 21 22 23 24 25 26 27 28 29 30 31 32 33 34 35 36 37 38 39 40 41 42 43 44 45 46 47 48 49 50
000
ASUS44 KMAF 020710
RWRMAF
MIDLAND AREA WEATHER ROUNDUP
NATIONAL WEATHER SERVICE MIDLAND TX
200 AM CDT SAT AUG 02 2014

...IN SOUTHWEST TEXAS AND SOUTHEAST NEW MEXICO...

CITY           SKY/WX    TMP DP  RH WIND       PRES   REMARKS
ALPINE         PTCLDY    65  60  84 CALM      30.26S
ANDREWS        CLOUDY    73  51  45 E6        30.17F
ARTESIA        CLOUDY    70  66  88 CALM      30.20R
BIG SPRING     MOCLDY    79  52  38 NE8       30.16S
CARLSBAD       LGT RAIN  69  66  90 NW9       30.16F FOG
DRYDEN           N/A     81  59  47 N9        30.05F
FORT STOCKTON  MOCLDY    71  65  81 E5        30.13F
GUAD PASS      CLOUDY    62  59  90 NE28      30.27S
HOBBS          CLOUDY    73  46  38 E9        30.20S
MARFA          MOCLDY    63  57  82 N6        30.25R
MIDLAND AIRPK  CLOUDY    76  51  42 CALM      30.15F
MIDLAND INTL   CLOUDY    75  53  46 E6        30.14F
ODESSA         CLOUDY    74  52  46 E7        30.15F
PECOS          CLOUDY    76  63  64 NW8       30.12S
PRESIDIO       FAIR      78  61  56 NE7       30.08R
SEMINOLE       CLOUDY    73  51  45 E5        30.19F
SNYDER         MOCLDY    74  58  57 E7        30.15S
WINK           CLOUDY    77  67  71 CALM      30.12F
$$
...OTHER STATIONS IN TEXAS...

CITY           SKY/WX    TMP DP  RH WIND       PRES   REMARKS
ABILENE        PTCLDY    71  61  70 E5        30.12S
AMARILLO       CLEAR     62  52  69 SW7       30.22S
AUSTIN         CLEAR     73  67  81 NE7       30.04S
BROWNSVILLE    PTCLDY    79  76  90 SE6       29.95S
CORPUS CHRISTI MOCLDY    81  76  84 S7        29.96S
DALLAS FTW     PTCLDY    70  65  84 N3        30.05F
DEL RIO        CLOUDY    84  68  58 E3        29.98F
EL PASO        CLOUDY    71  61  70 E6        30.15F
HOUSTON INT    PTCLDY    73  69  87 N5        29.98F
LUBBOCK        CLOUDY    70  50  49 SE5       30.18F
SAN ANGELO     MOCLDY    73  57  57 NE3       30.09S
SAN ANTONIO    PTCLDY    77  66  68 NE7       30.03F
WACO           CLOUDY    74  66  76 N3        30.04S
WICHITA FALLS  NOT AVBL
$$
...OTHER LOCATIONS IN NEW MEXICO...

CITY           SKY/WX    TMP DP  RH WIND       PRES   REMARKS
ALAMAGORDO     MOCLDY    68  64  88 N6        30.19F
ALBUQUERQUE    RAIN      62  57  83 E24G37    30.28S
CANNON AFB     CLOUDY    66  49  54 E7        30.25S
CLOVIS         NOT AVBL
HOLLOMAN AFB   CLOUDY    70  66  88 N3        30.17F
ROSWELL        CLOUDY    72  65  78 N3        30.19S
RUIDOSO        CLOUDY    57  57 100 CALM      30.39S
SANTA FE       LGT RAIN  59  56  89 S7        30.34S
TRUTH OR CONSE CLOUDY    70  62  76 S5        30.20F
TUCUMCARI      CLOUDY    72  47  40 CALM      30.23S
$$



USA.gov is the U.S. government's official web portal to all federal, state and local government web resources and services.